TimeMDT,TemperatureF,Dew PointF,Humidity,Sea Level PressureIn,VisibilityMPH,Wind Direction,Wind SpeedMPH,Gust SpeedMPH,PrecipitationIn,Events,Conditions,WindDirDegrees,DateUTC
12:53 AM,42.1,37.9,85,29.88,10.0,SE,5.8,-,0.00,,Scattered Clouds,140,2012-10-12 06:53:00
1:53 AM,46.0,39.0,76,29.88,10.0,SE,11.5,17.3,N/A,,Overcast,140,2012-10-12 07:53:00
2:41 AM,44.6,41.0,87,30.09,10.0,SE,8.1,-,0.01,Rain,Light Rain,140,2012-10-12 08:41:00
2:53 AM,44.1,41.0,89,29.87,10.0,SE,13.8,19.6,0.02,Rain,Light Rain,130,2012-10-12 08:53:00
3:01 AM,44.6,39.2,81,30.08,10.0,SE,17.3,21.9,0.00,Rain,Light Rain,130,2012-10-12 09:01:00
3:31 AM,44.6,42.8,93,30.07,8.0,ESE,17.3,24.2,0.03,Rain,Light Rain,120,2012-10-12 09:31:00
3:42 AM,44.6,42.8,93,30.06,5.0,ESE,13.8,-,0.06,Rain,Rain,120,2012-10-12 09:42:00
3:53 AM,43.0,42.1,97,29.84,6.0,SE,17.3,23.0,0.08,Rain,Rain,130,2012-10-12 09:53:00
4:10 AM,42.8,41.0,93,30.05,8.0,SE,13.8,-,0.02,Rain,Light Rain,130,2012-10-12 10:10:00
4:28 AM,42.8,42.8,100,30.07,4.0,SE,12.7,21.9,0.06,Rain,Heavy Rain,140,2012-10-12 10:28:00
4:40 AM,42.8,42.8,100,30.06,4.0,SE,17.3,24.2,0.11,Rain,Heavy Rain,130,2012-10-12 10:40:00
4:47 AM,42.8,42.8,100,30.06,3.0,SE,11.5,24.2,0.15,Rain,Heavy Rain,130,2012-10-12 10:47:00
4:53 AM,43.0,41.0,93,29.81,4.0,SE,9.2,-,0.16,Rain,Rain,140,2012-10-12 10:53:00
5:26 AM,42.8,41.0,93,30.04,10.0,ESE,10.4,-,0.00,,Overcast,110,2012-10-12 11:26:00
5:33 AM,42.8,41.0,93,30.04,10.0,ESE,9.2,-,0.00,,Overcast,120,2012-10-12 11:33:00
5:53 AM,42.1,41.0,96,29.82,10.0,SE,6.9,-,0.00,,Overcast,140,2012-10-12 11:53:00
6:22 AM,42.8,39.2,87,30.04,10.0,SE,6.9,-,N/A,,Overcast,130,2012-10-12 12:22:00
6:53 AM,42.1,39.9,92,29.83,9.0,ESE,10.4,-,0.02,Rain,Light Rain,120,2012-10-12 12:53:00
6:59 AM,42.8,39.2,87,30.03,10.0,ESE,8.1,-,0.00,Rain,Light Rain,120,2012-10-12 12:59:00
7:19 AM,42.8,39.2,87,30.03,3.0,ESE,8.1,19.6,0.07,Rain,Heavy Rain,110,2012-10-12 13:19:00
7:22 AM,42.8,39.2,87,30.03,2.5,SE,9.2,19.6,0.08,Rain,Heavy Rain,140,2012-10-12 13:22:00
7:32 AM,41.0,39.2,93,30.04,3.0,SSE,15.0,20.7,0.12,Rain,Heavy Rain,160,2012-10-12 13:32:00
7:37 AM,39.2,37.4,93,30.03,2.5,SSE,17.3,-,0.15,Rain,Heavy Rain,150,2012-10-12 13:37:00
8:53 AM,35.1,33.1,92,29.89,5.0,WNW,9.2,-,0.10,Snow,Light Snow,290,2012-10-12 14:53:00
9:35 AM,33.8,32.0,93,30.08,1.8,ENE,4.6,-,0.03,Snow,Light Snow,60,2012-10-12 15:35:00
9:41 AM,33.8,32.0,93,30.08,1.5,ENE,10.4,-,0.04,Snow,Light Snow,70,2012-10-12 15:41:00
9:50 AM,33.8,32.0,93,30.06,2.0,NE,11.5,-,0.04,Snow,Light Snow,40,2012-10-12 15:50:00
10:21 AM,33.8,33.8,100,30.07,7.0,NE,8.1,-,0.00,,Overcast,40,2012-10-12 16:21:00
10:40 AM,35.6,33.8,93,30.07,10.0,NNE,9.2,-,0.00,,Mostly Cloudy,30,2012-10-12 16:40:00
11:50 AM,42.8,35.6,76,30.05,10.0,Variable,3.5,-,N/A,,Mostly Cloudy,0,2012-10-12 17:50:00
11:53 AM,42.1,35.1,76,29.86,10.0,South,4.6,-,N/A,,Mostly Cloudy,170,2012-10-12 17:53:00
12:48 PM,39.2,33.8,81,30.06,10.0,SSW,19.6,26.5,0.00,Rain,Light Rain,200,2012-10-12 18:48:00
12:53 PM,37.0,34.0,89,29.90,7.0,SSW,13.8,26.5,0.00,Snow,Light Snow,200,2012-10-12 18:53:00
1:15 PM,37.4,35.6,93,30.06,10.0,West,13.8,-,0.00,,Overcast,260,2012-10-12 19:15:00
1:53 PM,42.1,33.1,70,29.84,10.0,West,13.8,-,0.00,,Mostly Cloudy,260,2012-10-12 19:53:00
2:20 PM,42.8,32.0,66,30.04,10.0,WSW,10.4,-,N/A,,Mostly Cloudy,240,2012-10-12 20:20:00
2:30 PM,42.8,32.0,66,30.04,10.0,SW,9.2,-,N/A,,Mostly Cloudy,230,2012-10-12 20:30:00
2:53 PM,41.0,36.0,82,29.84,9.0,SE,12.7,-,N/A,,Overcast,140,2012-10-12 20:53:00
3:22 PM,44.6,33.8,66,30.04,10.0,SSW,13.8,19.6,N/A,,Overcast,210,2012-10-12 21:22:00
3:38 PM,46.4,33.8,62,30.04,10.0,South,12.7,21.9,N/A,,Overcast,190,2012-10-12 21:38:00
3:53 PM,46.0,32.0,58,29.83,10.0,WSW,13.8,-,N/A,,Overcast,250,2012-10-12 21:53:00
4:15 PM,41.0,33.8,76,30.05,10.0,NW,10.4,-,N/A,,Overcast,310,2012-10-12 22:15:00
4:39 PM,41.0,33.8,76,30.05,10.0,West,8.1,-,N/A,,Overcast,280,2012-10-12 22:39:00
4:53 PM,39.9,34.0,79,29.87,10.0,NW,9.2,-,N/A,,Overcast,320,2012-10-12 22:53:00
5:53 PM,37.0,33.1,86,29.91,10.0,NW,6.9,-,N/A,,Overcast,310,2012-10-12 23:53:00
6:53 PM,36.0,34.0,93,29.94,10.0,NW,4.6,-,0.00,Rain,Light Rain,310,2012-10-13 00:53:00
7:25 PM,37.4,33.8,87,30.11,10.0,Calm,Calm,-,0.01,Rain,Light Rain,0,2012-10-13 01:25:00
7:32 PM,37.4,33.8,87,30.11,10.0,Variable,5.8,-,0.01,,Overcast,0,2012-10-13 01:32:00
7:53 PM,37.0,34.0,89,29.96,10.0,West,8.1,-,0.01,Rain,Light Rain,260,2012-10-13 01:53:00
8:04 PM,37.4,33.8,87,30.12,10.0,WSW,9.2,-,0.00,Rain,Light Rain,250,2012-10-13 02:04:00
8:53 PM,36.0,33.1,89,30.00,10.0,WSW,3.5,-,0.00,,Overcast,250,2012-10-13 02:53:00
9:53 PM,36.0,33.1,89,30.02,10.0,WSW,8.1,-,N/A,,Overcast,240,2012-10-13 03:53:00
10:53 PM,36.0,33.1,89,30.01,10.0,WSW,8.1,-,0.01,Rain,Light Rain,250,2012-10-13 04:53:00
11:53 PM,37.0,33.1,86,29.98,10.0,SSW,8.1,-,0.00,Rain,Light Rain,200,2012-10-13 05:53:00